EW4415 Weather Reports


Display with metric or nautical units.
time (UTC)temp
F
wind
direction
speed
MPH
gust
MPH
rain 1hr
in
rain 24hr
in
rain mn
in
humidity
%
barometer
mb
20260509181507 48 96 0.0 0.0 0.00 0.00 0.00 48 1025.1
20260509180002 49 96 0.0 0.0 0.00 0.00 0.00 45 1025.2
20260509174558 50 96 0.0 0.0 0.00 0.00 0.00 43 1025.1
20260509173101 51 96 0.0 0.0 0.00 0.00 0.00 40 1025.2
20260509171605 51 31 0.0 0.0 0.00 0.00 0.00 42 1025.3
20260509170045 52 128 0.0 1.0 0.00 0.00 0.00 41 1025.3
20260509164548 53 179 0.0 1.0 0.00 0.00 0.00 40 1025.3
20260509163046 54 148 0.0 0.0 0.00 0.00 0.00 41 1025.5
20260509161531 54 180 0.0 0.0 0.00 0.00 0.00 38 1025.5
20260509160029 55 223 0.0 2.0 0.00 0.00 0.00 37 1025.5
20260509154522 56 143 0.0 0.0 0.00 0.00 0.00 36 1025.7
20260509153018 56 87 0.0 0.0 0.00 0.00 0.00 36 1025.8
20260509151514 56 128 0.0 1.0 0.00 0.00 0.00 35 1026.0
20260509150010 57 159 0.0 2.0 0.00 0.00 0.00 34 1026.2
20260509144506 57 130 0.0 1.0 0.00 0.00 0.00 36 1026.3
20260509143100 57 143 0.0 1.0 0.00 0.00 0.00 35 1026.4
20260509141557 57 67 0.0 2.0 0.00 0.00 0.00 33 1026.6
20260509140052 57 65 0.0 5.0 0.00 0.00 0.00 33 1026.7
20260509134556 57 355 0.0 0.0 0.00 0.00 0.00 33 1026.8
20260509133044 58 140 0.0 1.0 0.00 0.00 0.00 31 1027.0
20260509131557 57 5 1.0 12.0 0.00 0.00 0.00 33 1027.1
20260509130048 57 147 0.0 6.0 0.00 0.00 0.00 31 1027.2
20260509124539 58 142 0.0 7.0 0.00 0.00 0.00 33 1027.5
20260509123029 58 130 0.0 1.0 0.00 0.00 0.00 31 1027.6
20260509121523 58 61 0.0 1.0 0.00 0.00 0.00 32 1027.9
20260509120017 58 154 0.0 1.0 0.00 0.00 0.00 30 1028.1
20260509114513 57 140 0.0 2.0 0.00 0.00 0.00 32 1028.2
20260509113008 57 80 0.0 3.0 0.00 0.00 0.00 33 1028.3
20260509111504 57 163 0.0 2.0 0.00 0.00 0.00 32 1028.4
20260509110001 57 159 0.0 1.0 0.00 0.00 0.00 33 1028.6
20260509104610 56 55 0.0 3.0 0.00 0.00 0.00 33 1028.7
20260509103054 56 171 0.0 6.0 0.00 0.00 0.00 32 1028.8
20260509101552 56 144 0.0 5.0 0.00 0.00 0.00 34 1028.9
20260509100046 57 152 0.0 7.0 0.00 0.00 0.00 34 1029.0
20260509094541 57 146 0.0 2.0 0.00 0.00 0.00 34 1029.1
20260509093037 57 149 0.0 3.0 0.00 0.00 0.00 34 1029.2
20260509091533 57 71 0.0 1.0 0.00 0.00 0.00 33 1029.3
20260509090030 56 119 0.0 2.0 0.00 0.00 0.00 35 1029.3
20260509084523 56 250 0.0 0.0 0.00 0.00 0.00 36 1029.3
20260509083019 56 118 0.0 0.0 0.00 0.00 0.00 37 1029.5
20260509081524 56 65 0.0 0.0 0.00 0.00 0.00 36 1029.5
20260509080010 56 49 0.0 1.0 0.00 0.00 0.00 38 1029.6
20260509074505 55 73 0.0 0.0 0.00 0.00 0.00 40 1029.6
20260509073003 55 38 0.0 0.0 0.00 0.00 0.00 41 1029.6
20260509071605 54 59 0.0 0.0 0.00 0.00 0.00 41 1029.7
20260509064549 53 152 0.0 2.0 0.00 0.00 0.00 42 1029.7
20260509063043 52 186 0.0 1.0 0.00 0.00 0.00 46 1029.8
20260509061539 51 140 0.0 1.0 0.00 0.00 0.00 51 1029.7
20260509060036 48 132 0.0 1.0 0.00 0.00 0.00 56 1029.7
20260509054540 45 261 0.0 0.0 0.00 0.00 0.00 55 1029.8
20260509053100 42 271 0.0 0.0 0.00 0.00 0.00 27 1029.7
20260509051525 40 271 0.0 0.0 0.00 0.00 0.00 1 1029.8
20260509050034 37 271 0.0 0.0 0.00 0.00 0.00 1 1029.7
20260509044517 35 271 0.0 0.0 0.00 0.00 0.00 1 1029.7
20260509043007 33 271 0.0 0.0 0.00 0.00 0.00 1 1029.7
20260509041505 32 271 0.0 0.0 0.00 0.00 0.00 1 1029.8
20260509040115 31 271 0.0 0.0 0.00 0.00 0.00 1 1029.8
20260509034622 29 271 0.0 0.0 0.00 0.00 0.00 1 1029.7
20260509033050 28 271 0.0 0.0 0.00 0.00 0.00 1 1029.6
20260509031546 28 271 0.0 0.0 0.00 0.00 0.00 1 1029.5
20260509030042 27 271 0.0 0.0 0.00 0.00 0.00 1 1029.5
20260509024542 27 271 0.0 0.0 0.00 0.00 0.00 1 1029.4
20260509023043 27 271 0.0 0.0 0.00 0.00 0.00 1 1029.4
20260509021529 27 271 0.0 0.0 0.00 0.00 0.00 1 1029.3
20260509020024 27 271 0.0 0.0 0.00 0.00 0.00 1 1029.2
20260509014520 27 271 0.0 0.0 0.00 0.00 0.00 1 1029.2
20260509013015 27 271 0.0 0.0 0.00 0.00 0.00 1 1029.1
20260509011511 27 271 0.0 0.0 0.00 0.00 0.00 1 1029.0
20260509010012 27 271 0.0 0.0 0.00 0.00 0.00 1 1029.0
20260509004501 27 271 0.0 0.0 0.00 0.00 0.00 5 1028.9
20260509003131 27 271 0.0 0.0 0.00 0.00 0.00 9 1028.7
20260509001557 27 271 0.0 0.0 0.00 0.00 0.00 11 1028.8
20260509000105 27 271 0.0 0.0 0.00 0.00 0.00 15 1028.8
20260508234545 28 271 0.0 0.0 0.00 0.00 0.00 18 1028.8
20260508233040 28 271 0.0 0.0 0.00 0.00 0.00 24 1028.9
20260508231540 28 271 0.0 0.0 0.00 0.00 0.00 28 1028.7
20260508230034 28 271 0.0 0.0 0.00 0.00 0.00 31 1028.6
20260508224535 29 271 0.0 0.0 0.00 0.00 0.00 33 1028.6
20260508223029 29 271 0.0 0.0 0.00 0.00 0.00 40 1028.6
20260508221528 30 271 0.0 0.0 0.00 0.00 0.00 42 1028.5
20260508220024 31 271 0.0 0.0 0.00 0.00 0.00 47 1028.5
20260508214520 31 271 0.0 0.0 0.00 0.00 0.00 52 1028.4
20260508213017 32 271 0.0 0.0 0.00 0.00 0.00 55 1028.4
20260508211514 33 271 0.0 0.0 0.00 0.00 0.00 58 1028.3
20260508210015 34 271 0.0 0.0 0.00 0.00 0.00 60 1028.1
20260508204510 35 271 0.0 0.0 0.00 0.00 0.00 61 1028.0
20260508203007 35 271 0.0 0.0 0.00 0.00 0.00 63 1027.8
20260508201506 36 271 0.0 0.0 0.00 0.00 0.00 63 1027.7
20260508200007 37 271 0.0 0.0 0.00 0.00 0.00 63 1027.6
20260508194506 39 271 0.0 0.0 0.00 0.00 0.00 62 1027.6
20260508193006 40 271 0.0 0.0 0.00 0.00 0.00 62 1027.7
20260508191504 41 271 0.0 0.0 0.00 0.00 0.00 60 1027.6
20260508190004 43 271 0.0 0.0 0.00 0.00 0.00 59 1027.6
20260508184502 45 271 0.0 0.0 0.00 0.00 0.00 56 1027.5
20260508183001 46 271 0.0 0.0 0.00 0.00 0.00 53 1027.5